Flag for U.S.A. Weather past 2 weeks in Albany, New York, U.S.A.

Now
77 °F

Broken clouds.


Feels Like: 79 °F
Forecast: 68 / 81 °F
Wind: 6 mph from South

Location: Albany County Airport

Current Time: Jul 7, 2015 at 10:17:06 PM

Latest Report: Jul 7, 2015 at 8:51 PM


Visibility: 10 mi

Pressure: 29.90 "Hg

Humidity: 79%

Dew point: 70 °F

Location of AlbanyLocation

Historic Weather in Albany — Graph

°F

Albany temperature yesterday

Maximum temperature yesterday: 85 °F (at 3:51 PM)
Minimum temperature yesterday: 58 °F (at 5:51 AM)
Average temperature yesterday: 74 °F

Past Weeks' High & Low Weather Summary

 TemperatureHumidityPressure
High88 °F (Jun 23, 3:51 PM)94% (Jun 30, 9:51 PM)30.17 "Hg (Jun 30, 9:51 PM)
Low52 °F (Jul 3, 5:51 AM)32% (Jul 3, 3:51 PM)29.67 "Hg (Jun 23, 3:51 PM)
Average68 °F69%29.95 "Hg
* Reported Jun 22 8:51 PM — Jul 7 8:51 PM, Albany, Weather by CustomWeather, © 2015

Note: Actual official high and low records may vary slightly from our data, if they occured in-between our weather recording intervals... More about our weather records

Advertising

Albany weather history for previous 24 hours

 ConditionsComfort  
Time TempWeatherWind HumidityBarometerVisibility
8:51 PM
Tue, Jul 7
77 °FBroken clouds.6 mph79%29.90 "Hg10 mi
7:51 PM78 °FBroken clouds.10 mph76%29.89 "Hg10 mi
6:51 PM79 °FBroken clouds.8 mph74%29.89 "Hg10 mi
5:51 PM79 °FPartly sunny.7 mph74%29.89 "Hg10 mi
4:51 PM81 °FBroken clouds.9 mph69%29.91 "Hg10 mi
3:51 PM79 °FBroken clouds.12 mph79%29.91 "Hg10 mi
2:55 PM77 °FLight rain. Partly sunny.9 mph85%29.94 "Hg5 mi
1:51 PM86 °FBroken clouds.12 mph59%29.92 "Hg10 mi
12:51 PM82 °FBroken clouds.10 mph67%29.95 "Hg10 mi
11:51 AM79 °FBroken clouds.9 mph72%29.98 "Hg10 mi
10:51 AM78 °FMostly cloudy.14 mph74%29.99 "Hg10 mi
9:51 AM77 °FMostly cloudy.12 mph74%30.01 "Hg10 mi
8:51 AM77 °FOvercast.9 mph74%30.02 "Hg10 mi
7:51 AM75 °FPartly sunny.9 mph76%30.03 "Hg10 mi
6:51 AM73 °FScattered clouds.5 mph79%30.03 "Hg10 mi
5:51 AM71 °FPassing clouds.No wind81%30.04 "Hg10 mi
4:51 AM70 °FPassing clouds.3 mph84%30.03 "Hg10 mi
3:51 AM72 °FPassing clouds.7 mph78%30.03 "Hg10 mi
2:51 AM72 °FPassing clouds.5 mph78%30.04 "Hg10 mi
1:51 AM73 °FPassing clouds.5 mph76%30.05 "Hg10 mi
12:51 AM73 °FPassing clouds.9 mph74%30.06 "Hg10 mi
11:51 PM
Mon, Jul 6
75 °FPassing clouds.10 mph74%30.05 "Hg10 mi
10:51 PM77 °FPassing clouds.9 mph69%30.06 "Hg10 mi
Weather by CustomWeather, © 2015

See weather overviewHow to use our weather pages